Location: C�mpuri de-Sus
(45.9500°N, 22.5500°E)
Time: 12:26:55
(UTC+00:00)

USA 215 - Pass Details

Date: 24 October 2021
Orbit: 1099 x 1109 km, 123.0° (Epoch: 20 November)

Event Time Altitude Azimuth Distance (km) Brightness Sun altitude
Exits shadow 17:21:14 17° 44° (NE) 2,470 4.7 -20.3°
Maximum altitude 17:25:55 44° 341° (NNW) 1,489 4.1 -21.1°
Drops below altitude 10° 17:32:01 10° 272° (W) 2,964 6.7 -22.1°
Sets 17:34:37 0° 266° (W) 3,922 7.6 -22.6°
